Regional Weather Roundup
Issued by NWS

Home | Current Version | Previous Version | Text Only | Print | Product List | Glossary Off
Versions: 1 2 3 4 5 6 7 8 9 10 11 12 13 14 15 16 17 18 19 20 21 22 23 24 25 26 27 28 29 30 31 32 33 34 35 36 37 38 39 40 41 42 43 44 45 46 47 48 49 50

000
ASUS45 KBOI 050310
RWRID

IDAHO REGIONAL WEATHER ROUNDUP
NATIONAL WEATHER SERVICE BOISE ID
900 PM MDT SAT JUL 04 2015

NOTE: "FAIR" INDICATES FEW OR NO CLOUDS BELOW 12000 FEET
WITH NO SIGNIFICANT WEATHER AND/OR OBSTRUCTIONS TO VISIBILITY

IDZ012-014-050400-
SOUTHWEST IDAHO


CITY           SKY/WX    TMP DP  RH WIND       PRES   REMARKS
BOISE          MOCLDY    94  39  14 CALM      29.75S HX  90
CALDWELL       MOCLDY    88  52  29 SE5       29.73S
MOUNTAIN HOME  MOCLDY    96  34  11 N6        29.76S HX  90
$$

IDZ016-017-050400-
SOUTHCENTRAL IDAHO


CITY           SKY/WX    TMP DP  RH WIND       PRES   REMARKS
BURLEY         CLOUDY    79  52  38 S15G22    29.87R
JEROME         CLOUDY    80  52  37 S10       29.87S
TWIN FALLS     CLOUDY    83  49  30 S18G28    29.85R
$$

IDZ019>023-050400-
SOUTHEAST IDAHO


CITY           SKY/WX    TMP DP  RH WIND       PRES   REMARKS
IDAHO FALLS    MOCLDY    84  46  26 S9        29.87S
POCATELLO      CLEAR     83  48  29 SW12      29.87R
REXBURG        MOCLDY    82  46  28 S6        29.88S
$$

IDZ006-010-011-018-031-032-050400-
CENTRAL IDAHO MOUNTAINS


CITY           SKY/WX    TMP DP  RH WIND       PRES   REMARKS
MCCALL         CLOUDY    82  31  15 SW5       29.92S
HAILEY         MOCLDY    82  45  26 S7        29.94R
STANLEY          N/A     76  32  20 N3        30.07R
SALMON         CLOUDY    79  54  41 CALM      29.77R
CHALLIS        CLOUDY    87  34  15 W14       29.88R
$$

IDZ002-004-006-007-026-050400-
NORTHERN IDAHO


CITY           SKY/WX    TMP DP  RH WIND       PRES   REMARKS
LEWISTON       MOCLDY    97  41  14 NW13      29.65R HX  92
LOWELL           N/A     80  60  50 CALM      29.67R
COEUR D`ALENE  CLEAR     88  54  31 S5        29.68S
MULLAN PASS    CLEAR     72  42  34 VRB5      30.01R
$$


USA.gov is the U.S. government's official web portal to all federal, state and local government web resources and services.